Weather History for Durango, CO

Change the Weather History Date:

Friday, August 15, 2014

  Actual Average Record
Temperature  
Mean Temperature 68 °F 68 °F  
Max Temperature 84 °F 83 °F 93 °F (2002)
Min Temperature 52 °F 52 °F 41 °F (1978)
Degree Days  
Heating Degree Days 0 0  
Month to date heating degree days 0 0  
Since 1 June heating degree days 88 125  
Since 1 July heating degree days 0 10  
Cooling Degree Days 3 3  
Month to date cooling degree days 49 57  
Year to date cooling degree days 273 208  
Since 1 June cooling degree days 268 207  
Growing Degree Days 18 (Base 50)    
Moisture  
Dew Point 51 °F    
Average Humidity 62    
Maximum Humidity 96    
Minimum Humidity 27    
Precipitation  
Precipitation 0.29 in 0.06 in 0.73 in (1990)
Month to date precipitation 1.49 1.13  
Year to date precipitation 5.19 8.92  
Sea Level Pressure  
Sea Level Pressure 30.07 in    
Wind  
Wind Speed 4 mph (North)    
Max Wind Speed 25 mph    
Max Gust Speed 36 mph    
Visibility 9 miles    
Events Rain , Thunderstorm    
T = Trace of Precipitation, MM = Missing Value Source: NWS Daily Summary

Daily Weather History Graph

Daily Weather History Graph

Search for Another Location

Airport:

Trip Planner

Search our weather history database for the weather conditions in past years. The results will help you decide how hot, cold, wet, or windy it might be!

Date:

Astronomy

Aug. 15, 2014 Rise Set
Actual Time 6:27 AM MDT 8:02 PM MDT
Civil Twilight 5:59 AM MDT 8:30 PM MDT
Nautical Twilight 5:26 AM MDT 9:03 PM MDT
Astronomical Twilight 4:51 AM MDT 9:38 PM MDT
Moon 11:16 PM MDT (8/15) 12:04 PM MDT (8/15)
Length of Visible Light 14h 30m
Length of Day
13h 35m
Waning Gibbous, 68% of the Moon is Illuminated
Aug 15
Waning Gibbous
Aug 17
Last Quarter
Aug 25
New
Sep 2
First Quarter
Sep 8
Full

Hourly Weather History & Observations

Time (MDT) Temp. Dew Point Humidity Pressure Visibility Wind Dir Wind Speed Gust Speed Precip Events Conditions
12:53 AM 59.0 °F 53.1 °F 81% 30.03 in 10.0 mi NNW 3.5 mph - N/A   Clear
1:53 AM 57.9 °F 52.0 °F 81% 30.02 in 10.0 mi Calm Calm - N/A   Clear
2:53 AM 55.9 °F 52.0 °F 87% 30.02 in 10.0 mi Calm Calm - N/A   Clear
3:53 AM 55.9 °F 50.0 °F 80% 30.02 in 10.0 mi Calm Calm - N/A   Clear
4:53 AM 54.0 °F 51.1 °F 90% 30.03 in 10.0 mi Calm Calm - N/A   Clear
5:53 AM 52.0 °F 50.0 °F 93% 30.04 in 10.0 mi ESE 3.5 mph - N/A   Clear
6:53 AM 52.0 °F 48.9 °F 89% 30.06 in 10.0 mi Calm Calm - N/A   Clear
8:53 AM 62.1 °F 53.1 °F 72% 30.08 in 10.0 mi Variable 3.5 mph - N/A   Clear
9:53 AM 68.0 °F 52.0 °F 56% 30.06 in 10.0 mi East 4.6 mph - N/A   Clear
10:53 AM 72.0 °F 48.0 °F 43% 30.07 in 10.0 mi Variable 3.5 mph - N/A   Clear
11:53 AM 75.9 °F 46.9 °F 36% 30.06 in 10.0 mi North 6.9 mph - N/A   Clear
12:53 PM 80.1 °F 46.9 °F 31% 30.01 in 10.0 mi South 6.9 mph - N/A   Clear
1:53 PM 84.0 °F 46.9 °F 27% 29.97 in 10.0 mi WSW 9.2 mph - N/A   Clear
2:53 PM 82.9 °F 46.9 °F 28% 29.96 in 10.0 mi NNW 9.2 mph 23.0 mph N/A   Clear
3:46 PM 80.1 °F 51.1 °F 36% 30.21 in 10.0 mi NW 8.1 mph - N/A Thunderstorm Clear
3:53 PM 80.1 °F 44.1 °F 28% 29.95 in 10.0 mi NNW 10.4 mph - N/A Thunderstorm Clear
4:37 PM 77.0 °F 48.0 °F 36% 30.21 in 10.0 mi SSW 8.1 mph - N/A   Clear
4:53 PM 72.0 °F 55.0 °F 55% 29.98 in 8.0 mi SW 10.4 mph 20.7 mph 0.01 in Rain , Thunderstorm Light Thunderstorms and Rain
5:07 PM 75.9 °F 51.1 °F 42% 30.20 in 10.0 mi South 3.5 mph - 0.00 in Rain , Thunderstorm Light Rain
5:25 PM 68.0 °F 57.0 °F 68% 30.21 in 4.0 mi North 24.2 mph 32.2 mph 0.07 in Rain , Thunderstorm Thunderstorms and Rain
5:34 PM 70.0 °F 53.1 °F 55% 30.22 in 5.0 mi North 16.1 mph 31.1 mph 0.09 in Rain Light Rain
5:42 PM 66.0 °F 48.9 °F 54% 30.22 in 1.8 mi ENE 15.0 mph 36.8 mph 0.24 in Rain Heavy Rain
5:49 PM 69.8 °F 46.4 °F 43% 30.21 in 4.0 mi ENE 9.2 mph - 0.24 in Rain Light Rain
5:53 PM 70.0 °F 48.9 °F 47% 30.01 in 10.0 mi ENE 9.2 mph - 0.24 in Rain , Thunderstorm Light Rain
6:14 PM 71.1 °F 57.0 °F 61% 30.21 in 10.0 mi Calm Calm - 0.04 in Rain Light Rain
6:53 PM 75.0 °F 54.0 °F 48% 29.99 in 10.0 mi Calm Calm - 0.04 in   Clear
7:53 PM 71.1 °F 53.1 °F 53% 29.99 in 10.0 mi North 6.9 mph - N/A   Clear
8:53 PM 66.9 °F 53.1 °F 61% 30.00 in 10.0 mi North 6.9 mph - N/A   Clear
9:53 PM 64.0 °F 52.0 °F 65% 30.01 in 10.0 mi Calm Calm - N/A   Clear
11:53 PM 60.1 °F 50.0 °F 69% 30.01 in 10.0 mi Calm Calm - N/A   Clear